Wetbulb
64.31 63.88 65.39 66.81 67.27 67.37 68.31 69.40 70.26 70.84 70.43 70.83 71.83 71.06 70.38 71.40 71.24 70.36 70.61 69.57 68.78 68.37 70.62 70.11 72.62 73.43 74.72 73.86 73.67 73.33 73.16 72.47 72.08
56.56 63.18 64.61 66.60 67.41 67.70 68.12 69.37 70.09 70.75 70.42 70.49 71.14 71.82 71.00 71.22 71.35 71.33 70.68 69.94 70.85 69.28 69.82 72.54 70.75 72.49 74.31 75.12 73.95 74.11 73.48 72.72 71.79
55.00 59.30 62.23 65.60 67.55 68.13 68.77 69.65 70.58 71.54 71.36 70.82 70.85 72.03 71.66 71.45 71.15 70.73 71.94 70.44 71.15 71.63 71.63 71.80 71.83 73.56 73.83 73.25 73.70 73.23 73.33 72.61 72.09
57.09 60.39 61.27 63.89 67.52 68.72 68.97 69.96 70.59 71.36 71.42 71.17 70.93 71.53 71.65 71.61 71.48 71.89 71.78 72.39 71.62 71.12 72.41 70.85 71.59 72.41 72.97 72.91 72.83 73.45 73.41 72.53 71.83
59.28 60.60 61.92 62.55 66.42 68.70 68.63 69.45 70.35 71.43 71.63 71.51 71.54 71.26 71.76 71.98 71.77 71.76 71.76 71.59 71.34 72.08 71.12 72.23 72.11 72.70 71.83 72.28 73.05 73.37 72.45 72.13 72.22
59.62 60.16 59.83 61.36 66.12 68.14 68.53 69.34 70.24 71.36 71.70 72.15 72.32 71.31 71.22 71.50 71.61 71.47 71.46 71.50 71.52 70.78 72.27 71.20 71.12 71.59 72.84 72.25 72.09 72.31 72.60 72.70 72.00
60.02 60.14 62.55 61.93 65.66 67.89 68.51 69.21 69.86 70.75 71.55 72.47 72.74 72.16 71.31 70.78 71.10 71.67 71.54 71.76 71.78 70.90 71.51 71.83 71.01 71.61 71.99 73.32 73.42 73.83 73.37 73.29 72.77
58.58 61.86 63.32 62.62 66.39 67.72 68.26 68.29 69.60 70.50 71.36 72.22 72.72 72.25 71.57 71.31 71.28 71.96 71.63 71.40 72.18 72.18 72.41 72.98 72.72 72.14 72.80 73.61 73.45 74.12 73.00 73.01 72.77
62.58 63.17 63.50 65.34 68.92 69.97 69.21 69.23 70.22 70.51 70.72 71.46 72.73 72.15 71.83 72.07 72.45 72.02 72.48 72.21 72.79 72.86 72.78 73.95 73.62 73.40 73.47 73.07 74.22 65.68 66.66 67.70 68.33
63.86 65.21 65.28 66.61 68.68 69.81 70.89 70.64 70.94 71.44 71.13 71.84 71.87 71.95 72.38 72.22 72.91 72.58 72.69 73.74 73.61 74.51 73.57 73.73 74.42 73.77 73.95 73.99 67.94 63.90 64.85 65.95 66.75
63.50 64.38 65.56 66.94 68.85 70.13 70.23 72.47 72.23 71.81 73.21 72.33 72.32 72.88 72.21 73.33 73.01 73.00 73.28 73.86 74.10 74.09 74.71 74.24 74.42 74.55 74.23 70.84 64.61 62.13 62.05 62.04 63.03
64.23 65.02 65.42 67.70 69.42 71.19 71.40 70.92 72.66 72.83 72.45 73.70 72.96 72.85 73.53 73.70 73.66 73.48 73.36 73.58 73.89 74.28 73.99 74.36 74.72 74.19 72.23 63.78 62.46 61.24 59.95 61.29 60.72
64.12 65.99 66.96 67.55 69.08 70.56 73.05 71.79 73.16 72.33 72.26 72.16 73.45 72.64 74.33 74.59 74.67 74.31 74.13 74.00 74.34 74.23 73.43 72.73 71.80 69.00 69.70 66.24 62.19 60.15 58.61 59.84 59.39
64.00 65.15 66.23 66.67 68.56 70.43 71.60 72.27 73.37 71.98 72.70 71.85 72.94 73.57 73.90 73.05 72.89 71.87 72.08 70.17 69.88 69.20 68.39 68.30 67.15 66.94 66.43 64.74 62.45 59.73 58.57 56.87 56.59
63.24 64.53 64.63 65.63 67.17 70.96 71.63 72.09 72.85 71.98 70.51 70.40 70.55 70.19 69.16 67.62 67.58 67.78 67.17 66.86 66.77 66.79 66.59 64.05 63.29 64.14 63.88 64.42 62.74 57.34 55.81 55.17 54.85
61.93 63.16 64.50 64.63 65.96 71.05 71.64 73.10 72.15 68.28 68.66 69.34 68.07 66.88 65.79 65.77 65.71 65.41 65.96 66.16 66.18 66.35 65.53 62.76 62.47 62.07 61.35 62.35 58.84 55.78 55.14 54.51 54.63
59.99 61.60 63.60 64.34 64.11 68.99 68.55 70.07 70.57 68.23 68.23 68.61 67.56 65.73 65.17 64.90 63.72 62.76 63.74 63.44 61.93 59.56 59.24 61.57 61.56 61.65 61.15 58.97 57.23 54.49 53.96 54.08 54.02
59.70 60.13 62.42 63.92 63.93 67.26 68.52 69.19 67.78 67.62 67.29 67.02 66.30 65.05 64.35 63.44 62.43 61.81 57.86 56.77 55.58 54.72 53.55 57.35 57.89 57.35 58.03 56.67 55.26 53.40 51.19 49.94 51.34
58.50 60.26 61.00 61.29 63.52 66.90 66.75 65.79 66.63 67.26 67.11 66.83 65.94 64.33 63.16 62.04 60.38 57.70 55.23 53.30 52.00 49.69 49.49 47.86 47.76 48.54 54.37 56.03 53.32 50.15 48.51 46.48 45.58
58.16 60.75 61.55 61.56 62.39 66.42 66.41 62.01 66.21 67.33 66.59 67.05 65.05 63.79 62.51 60.20 59.31 58.01 56.56 55.29 53.31 51.33 50.76 49.26 48.81 48.97 50.91 50.64 53.57 48.28 47.70 44.72 45.18
MSLP
999.90 1000.64 1001.34 1002.52 1003.63 1004.75 1005.84 1007.10 1008.28 1009.49 1010.61 1011.62 1012.35 1013.16 1013.76 1014.27 1014.63 1014.99 1015.37 1015.58 1015.90 1016.14 1016.19 1016.09 1016.16 1016.28 1016.21 1016.29 1016.46 1016.61 1016.84 1017.20 1017.49
999.29 999.98 1000.59 1001.71 1002.88 1004.00 1005.15 1006.37 1007.44 1008.61 1009.90 1010.88 1011.63 1012.36 1013.16 1013.79 1014.22 1014.57 1014.90 1015.20 1015.45 1015.60 1015.72 1015.69 1015.67 1015.43 1015.88 1015.93 1016.10 1016.32 1016.86 1017.04 1017.12
999.00 999.55 1000.21 1001.21 1002.31 1003.38 1004.45 1005.48 1006.72 1008.09 1009.04 1009.85 1010.76 1011.63 1012.53 1013.20 1013.70 1014.12 1014.45 1014.71 1014.99 1015.03 1015.16 1015.30 1015.28 1015.41 1015.76 1016.03 1016.19 1016.38 1016.64 1016.80 1016.84
999.18 999.56 1000.25 1000.87 1001.93 1002.83 1003.89 1005.07 1006.24 1007.50 1008.67 1009.57 1010.41 1011.04 1011.86 1012.62 1013.19 1013.63 1014.01 1014.21 1014.39 1014.57 1014.68 1014.83 1015.19 1015.27 1015.46 1015.78 1016.09 1016.25 1016.45 1016.59 1016.60
999.55 1000.02 1000.29 1000.61 1001.45 1002.30 1003.53 1004.64 1005.78 1006.93 1008.06 1008.96 1009.61 1010.28 1011.17 1011.89 1012.61 1013.14 1013.51 1013.76 1013.85 1014.04 1014.25 1014.49 1014.66 1014.98 1015.21 1015.42 1015.68 1015.83 1016.05 1016.20 1016.24
999.67 1000.05 1000.41 1000.86 1001.60 1002.28 1003.09 1004.24 1005.32 1006.43 1007.38 1008.22 1009.04 1009.83 1010.66 1011.37 1011.91 1012.38 1012.71 1013.00 1013.32 1013.57 1013.74 1013.88 1014.16 1014.45 1014.72 1014.89 1015.12 1015.37 1015.56 1015.80 1015.95
999.84 1000.20 1000.67 1000.91 1001.53 1002.25 1002.87 1003.87 1004.85 1005.77 1006.83 1007.56 1008.31 1009.17 1009.94 1010.65 1011.12 1011.50 1011.92 1012.32 1012.77 1013.05 1013.22 1013.42 1013.59 1013.85 1014.06 1014.27 1014.56 1014.87 1015.11 1015.30 1015.42
1000.07 1000.51 1000.88 1001.14 1001.68 1002.23 1002.83 1003.71 1004.57 1005.18 1005.95 1006.81 1007.58 1008.46 1009.28 1009.76 1010.32 1010.87 1011.35 1011.74 1011.99 1012.30 1012.63 1012.82 1013.05 1013.40 1013.62 1013.82 1014.17 1014.53 1014.70 1014.75 1014.86
1000.80 1000.61 1000.79 1001.21 1001.56 1002.07 1002.61 1003.25 1004.07 1004.76 1005.36 1006.15 1006.95 1007.80 1008.42 1009.06 1009.66 1010.16 1010.59 1010.99 1011.36 1011.69 1011.90 1012.16 1012.49 1012.78 1013.11 1013.58 1013.94 1014.18 1014.23 1014.37 1014.48
1001.56 1001.52 1001.58 1001.39 1001.56 1001.94 1002.32 1002.77 1003.37 1004.25 1004.89 1005.63 1006.41 1007.08 1007.72 1008.30 1008.90 1009.42 1009.85 1010.23 1010.61 1010.96 1011.15 1011.43 1011.76 1011.99 1012.37 1012.79 1013.46 1013.71 1013.93 1014.04 1014.20
1001.79 1001.87 1001.87 1001.79 1001.65 1001.75 1001.91 1002.35 1003.05 1003.76 1004.50 1005.17 1005.85 1006.62 1007.19 1007.71 1008.28 1008.86 1009.43 1009.80 1010.07 1010.28 1010.59 1010.84 1011.13 1011.41 1011.63 1012.21 1013.02 1013.36 1013.83 1013.81 1013.86
1002.56 1002.21 1002.21 1002.26 1002.06 1001.83 1001.94 1002.21 1002.62 1003.41 1004.37 1004.99 1005.57 1006.13 1006.72 1007.26 1007.85 1008.51 1009.01 1009.37 1009.63 1009.80 1010.16 1010.38 1010.50 1010.68 1011.26 1012.48 1013.42 1013.54 1013.59 1013.71 1014.08
1002.58 1002.50 1002.42 1002.40 1002.40 1002.32 1002.00 1002.26 1002.54 1003.37 1004.21 1004.90 1005.54 1005.96 1006.40 1006.96 1007.53 1008.06 1008.54 1008.92 1009.05 1009.07 1009.36 1010.00 1010.22 1010.98 1011.97 1011.36 1013.21 1013.85 1013.91 1013.81 1014.13
1002.92 1003.02 1002.60 1002.58 1002.72 1002.74 1002.39 1002.35 1002.80 1003.62 1004.31 1004.93 1005.13 1005.64 1006.29 1006.86 1007.29 1007.77 1008.19 1008.86 1009.24 1009.57 1009.84 1010.24 1010.87 1011.41 1012.07 1012.67 1013.24 1014.03 1014.06 1014.08 1014.49
1003.52 1003.47 1003.03 1003.06 1002.91 1003.21 1002.56 1002.58 1003.02 1003.75 1004.50 1005.18 1005.52 1006.01 1006.77 1007.38 1007.75 1008.25 1008.76 1009.21 1009.81 1010.14 1010.66 1011.32 1011.62 1011.99 1012.39 1012.53 1013.10 1013.48 1014.04 1014.35 1014.60
1004.44 1003.87 1003.79 1003.36 1003.37 1003.23 1002.77 1002.68 1003.34 1004.38 1005.08 1005.29 1005.88 1006.69 1007.46 1008.07 1008.50 1008.87 1009.24 1009.73 1010.35 1011.00 1011.52 1011.95 1011.81 1011.78 1012.14 1012.60 1013.22 1013.82 1014.03 1014.44 1014.58
1005.33 1004.62 1004.02 1003.73 1003.82 1003.81 1003.60 1003.74 1004.44 1005.23 1005.82 1005.94 1006.01 1006.70 1007.76 1008.51 1008.87 1009.52 1009.99 1010.42 1010.84 1011.39 1011.73 1012.33 1012.47 1012.74 1012.45 1013.13 1013.89 1014.05 1014.41 1014.62 1014.70
1005.45 1004.85 1004.18 1004.13 1004.48 1004.55 1003.85 1003.86 1004.61 1005.44 1006.23 1006.80 1006.94 1007.27 1007.85 1008.65 1009.53 1010.05 1010.85 1011.56 1011.95 1012.09 1012.58 1012.56 1013.05 1012.92 1013.46 1013.20 1013.90 1014.27 1014.64 1014.86 1014.69
1005.12 1005.00 1004.22 1004.27 1004.56 1005.15 1005.42 1006.08 1005.99 1005.55 1005.96 1006.49 1007.35 1008.20 1008.28 1008.74 1009.71 1010.58 1011.40 1011.96 1012.65 1012.80 1012.92 1012.57 1012.54 1012.91 1013.32 1013.36 1014.04 1014.42 1014.94 1014.72 1014.35
1004.86 1004.59 1004.08 1004.12 1004.49 1004.81 1004.87 1005.86 1006.18 1006.02 1005.75 1005.87 1007.17 1008.26 1008.41 1008.76 1009.66 1010.62 1011.23 1011.80 1012.23 1012.84 1013.14 1013.21 1012.99 1013.08 1012.98 1013.23 1013.49 1014.17 1014.94 1014.34 1013.99
Wind_Speed
16 13 16 24 23 21 20 24 22 21 19 16 14 14 13 9 8 8 6 6 5 4 4 5 4 7 6 7 7 5 4 3 3
9 14 16 22 22 21 19 23 23 22 20 17 16 15 11 9 10 7 7 7 6 5 7 5 8 7 8 7 6 5 5 4 4
7 8 11 16 20 20 18 22 20 21 20 20 18 15 12 11 9 8 6 6 7 7 6 4 5 5 6 6 6 6 6 4 4
8 10 10 10 17 18 19 19 20 19 18 17 16 15 14 12 10 9 9 6 7 7 5 6 7 7 7 7 6 7 6 7 6
9 9 8 7 13 19 19 20 19 19 18 17 16 16 14 13 12 10 11 10 7 7 8 6 6 7 7 7 6 6 6 7 6
8 9 8 4 9 17 18 18 18 18 18 17 16 15 13 14 12 14 14 13 12 7 7 8 7 6 7 7 7 7 6 6 6
8 8 8 3 7 14 17 16 18 16 17 17 17 16 15 15 15 15 14 12 10 11 8 7 8 7 8 7 7 7 6 7 7
4 6 8 4 6 9 15 13 14 15 16 17 17 16 16 15 15 13 13 10 12 12 11 11 10 9 7 7 7 7 7 6 6
6 6 8 6 8 10 15 16 12 16 15 14 16 16 16 15 13 14 13 13 11 12 13 10 10 11 10 7 4 9 9 7 3
7 8 6 2 9 9 11 15 15 12 14 12 13 15 14 15 13 14 14 11 12 11 13 12 10 11 9 9 7 11 9 7 2
8 8 8 9 1 6 8 10 10 9 10 12 13 11 13 12 14 14 10 8 9 10 8 11 9 8 8 5 4 10 5 4 3
6 7 6 5 7 3 6 9 10 11 8 9 8 10 9 10 12 10 9 8 8 6 6 7 10 8 5 9 6 7 6 5 3
9 8 4 5 8 5 7 6 8 10 8 8 8 7 8 8 8 10 10 9 9 7 6 6 3 5 4 7 9 8 7 5 3
6 4 9 6 6 7 5 6 7 7 8 7 6 6 6 6 4 6 5 5 4 4 4 6 5 5 7 6 10 11 8 7 3
8 7 9 14 4 5 5 5 7 7 9 6 8 10 10 8 8 7 6 10 6 7 6 4 2 5 5 4 6 11 9 7 3
7 7 7 6 7 3 4 5 8 10 7 10 11 11 10 9 9 7 6 8 7 5 5 0 4 4 2 5 5 4 7 5 4
7 6 6 5 8 7 2 6 8 8 7 8 11 12 11 9 9 8 7 5 5 5 5 4 3 3 6 7 4 4 3 0 2
7 8 6 5 6 9 5 8 11 8 7 5 7 9 10 9 8 7 6 6 4 6 3 5 3 5 2 5 4 2 3 3 2
6 9 8 5 5 6 8 13 2 9 10 8 9 7 7 7 7 6 5 5 5 11 6 7 14 12 4 3 4 6 7 5 3
9 9 9 6 4 5 17 6 12 6 8 10 9 8 8 7 8 7 7 5 5 6 3 7 5 3 9 9 10 9 9 0 6
Wind_Direction
185 182 167 173 177 175 166 168 167 168 170 168 169 177 189 195 190 196 200 190 185 212 201 207 186 209 198 201 205 219 218 208 241
186 177 177 170 173 173 166 169 169 168 170 174 175 177 182 189 192 184 196 203 196 201 225 197 204 195 198 194 202 206 218 231 245
166 152 154 156 172 171 169 170 166 166 170 172 176 176 182 190 189 201 193 203 220 201 201 172 182 171 182 199 216 221 208 226 235
154 141 136 146 170 170 167 167 165 166 169 169 174 179 183 191 196 196 211 208 210 213 212 202 178 187 191 206 220 225 215 219 219
111 124 151 163 152 163 166 165 167 166 168 171 176 180 182 190 191 200 203 219 220 210 203 210 198 186 189 198 207 213 205 209 210
157 155 152 144 134 162 165 166 166 165 171 174 174 175 179 188 189 196 207 212 218 213 206 206 208 207 208 206 210 219 224 217 223
164 156 166 168 141 160 164 162 169 165 172 174 174 177 182 188 199 198 205 207 205 213 210 200 201 207 209 204 205 209 216 219 224
238 146 148 157 156 150 161 158 166 171 171 175 176 179 186 192 198 199 203 203 199 205 208 212 205 208 214 208 212 218 219 228 237
96 112 122 188 155 150 160 167 164 175 177 172 175 181 188 192 189 196 198 206 208 204 210 206 200 208 212 210 201 131 139 157 218
47 44 25 348 168 164 160 171 172 168 179 165 169 182 186 187 186 194 202 199 203 200 207 206 199 207 197 200 148 184 168 163 183
41 27 16 356 219 167 164 157 164 156 153 168 173 173 187 182 188 196 193 185 198 206 194 203 202 202 201 167 143 153 159 110 65
32 43 357 358 335 158 173 156 162 153 154 158 161 177 169 172 180 177 185 195 198 199 192 200 205 209 174 123 158 185 157 119 89
25 2 8 5 326 322 137 173 149 151 161 158 165 170 166 162 164 177 190 189 202 213 217 224 171 77 58 114 134 203 191 126 95
12 23 357 351 358 313 132 113 127 142 142 163 151 135 135 119 131 122 129 88 56 78 70 91 105 129 139 145 154 189 181 107 91
3 12 0 357 24 287 153 141 140 134 113 114 97 95 97 94 96 96 96 102 98 98 101 90 161 149 178 163 133 131 138 153 151
347 19 347 357 322 211 144 105 120 121 128 116 106 99 101 108 106 101 98 104 98 88 61 320 165 169 131 104 81 108 145 150 238
324 328 324 318 340 258 192 73 95 114 129 123 124 122 120 117 111 104 89 82 83 92 77 66 329 324 95 102 121 91 68 11 310
311 304 305 325 30 317 179 144 134 131 127 138 124 124 127 122 121 113 98 68 86 107 87 123 106 73 33 92 85 93 201 223 304
286 283 281 317 11 13 360 353 132 140 144 138 131 148 135 131 123 116 106 112 89 40 49 127 129 135 117 92 107 163 224 221 288
260 268 268 267 264 191 148 183 269 189 164 131 143 171 144 135 137 136 138 135 138 134 26 32 38 139 160 178 164 215 239 272 342